Location: Alafon
(8.4500°N, 4.2333°E)
Time: 17:28:46
(UTC+00:00)

SR - Pass Details

Date: 06 August 2021
Orbit: 581 x 874 km, 66.7° (Epoch: 18 September)

Event Time Altitude Azimuth Distance (km) Brightness Sun altitude
Rises 13:31:35 0° 14° (NNE) 2,860 ? 63.7°
Reaches altitude 10° 13:36:13 10° 59° (ENE) 1,909 ? 62.6°
Maximum altitude 13:36:40 10° 66° (ENE) 1,896 ? 62.5°
Drops below altitude 10° 13:37:08 10° 72° (ENE) 1,903 ? 62.4°
Sets 13:41:38 0° 117° (ESE) 2,787 ? 61.4°
